Regional Weather Roundup
Issued by NWS Newport/Morehead, NC

Current Version | Previous Version | Graphics & Text | Print | Product List | Glossary On
Versions: 1 2 3 4 5 6 7 8 9 10 11 12 13 14 15 16 17 18 19 20 21 22 23 24 25 26 27 28 29 30 31 32 33 34 35 36 37 38 39 40 41 42 43 44 45 46 47 48 49 50
000 ASUS42 KMHX 291625 RWRMHX WEATHER ROUNDUP FOR EASTERN NORTH CAROLINA NATIONAL WEATHER SERVICE NEWPORT/MOREHEAD CITY NC 1200 PM EDT MON AUG 29 2016 NOTE: "FAIR" INDICATES FEW OR NO CLOUDS BELOW 12,000 FEET WITH NO SIGNIFICANT WEATHER AND/OR OBSTRUCTIONS TO VISIBILITY NCZ015>017-031-032-045>047-102-103-291700- NORTH COAST CITY SKY/WX TMP DP RH WIND PRES REMARKS EDENTON CLOUDY 84 74 71 NE5 30.12F ELIZABETH CITY LGT RAIN 79 76 90 NE13 30.12S KITTY HAWK CLOUDY 87 80 81 NE10G16 30.11R HX 102 MANTEO PTSUNNY 83 78 83 NE13G20 30.11S $$ NCZ045>047-081-094-103-104-291700- CENTRAL COAST CITY SKY/WX TMP DP RH WIND PRES REMARKS FRISCO NOT AVBL $$ NCZ095-097-098-100-101-291700- SOUTHERN COAST CITY SKY/WX TMP DP RH WIND PRES REMARKS BEAUFORT CLOUDY 85 74 69 N10 30.07F CEDAR ISLAND NOT AVBL JACKSONVILLE CLOUDY 85 74 69 N10 30.09F PINEY ISLAND NOT AVBL WILMINGTON PTSUNNY 82 75 79 N10 30.09F $$ NCZ011>013-027>030-043-044-078>080-089-090>093-098-291700- COASTAL PLAIN CITY SKY/WX TMP DP RH WIND PRES REMARKS AHOSKIE MOSUNNY 83 72 68 NE6 30.13F CLINTON MOSUNNY 83 73 72 NE7 30.12F ELIZABETHTOWN MOSUNNY 83 71 67 N3 30.12F GOLDSBORO MOSUNNY 82 78 86 NE9 30.11F GREENVILLE CLOUDY 82 75 78 CALM 30.12F HAVELOCK CLOUDY 86 72 62 NE8 30.09F KENANSVILLE PTSUNNY 81 73 78 N8 30.12F KINSTON CLOUDY 81 75 83 NE8 30.13 NEW BERN CLOUDY 84 76 76 N8 30.11F RICHLANDS CLOUDY 81 75 83 VRB6 30.11F ROCKY MOUNT CLOUDY 85 73 67 N9 30.14F WASHINGTON CLOUDY 83 76 79 N8 30.11F WHITEVILLE CLOUDY 81 73 77 NE3 30.11S $$ AMZ130-135-150-152-154-156-158-170-250-252-270-ANZ085-086-088-633-658-670-291700- MARINE OBSERVATIONS STATION/POSITION TIME TEMP WIND PRES WAVE SWELL AIR SEA DIR/SP/G HT/PER HT/PER (UTC) (F) (DEG/KT/KT) (MB) (FT/S) (FT/S) CHESAPEAKE LIGHT NOT AVBL 64 E VA BEACH 1550 80 81 40/ 17/ 19 1019.3 5/ 9 3/ 9 DUCK 1600 80 79 50/ 15/ 16 1019.2 2 E DUCK 1511 79 N/A 4/ 9 2/14 OREGON INLET 1600 83 80 10/ 10/ 14 1019.1 13E OREGON INLT 1600 81 N/A 5/ 8 5/ 8 HATTERAS CG 1600 82 83 20/ 14/ 17 1018.1 DIAMOND BUOY 1550 83 84 50/ 16/ 17 1017.7 6/ 9 5/ 9 CAPE LOOKOUT 1600 83 40/ 13/ 15 1017.9 BEAUFORT LAB 1600 86 81 40/ 4/ 14 1017.6 30 SE NEW RVR IN 1608 83 84 40/ 12/ 16 1018.0 30 SE NEW RVR IN 1525 84 N/A 4/13 2/13 27 SE WRIGHTSVLE 1608 82 83 20/ 10/ 14 1018.4 5 SE WRIGHTSVLE 1608 82 83 40/ 10/ 14 1019.6 225 S CAPE HAT 1550 83 84 320/ 10/ 12 1016.5 5/13 5/13 41 SE CHARLESTON 1550 83 85 60/ 4/ 6 1017.8 3/14 3/14 $$

USA.gov is the U.S. government's official web portal to all federal, state and local government web resources and services.